Location: Grasslands National Park East Block
(49.0708°N, 106.5295°W)
Time: 22:24:59
(UTC-06:00)

Vanguard 1 - Pass Details

Date: 26 September 2019
Orbit: 653 x 3830 km, 34.2° (Epoch: 17 October)

Event Time Altitude Azimuth Distance (km) Brightness Sun altitude
Rises 07:25:59 0° 277° (W) 7,908 14.0 3.7°
Reaches altitude 10° 07:32:42 10° 269° (W) 6,659 13.7 4.8°
Maximum altitude 07:48:26 29° 220° (SW) 4,206 13.1 7.3°
Drops below altitude 10° 07:59:12 10° 166° (SSE) 4,490 13.9 9.1°
Sets 08:02:41 0° 155° (SSE) 5,073 14.3 9.6°
